Tracking 19720 objects as of 26-Jun-2019
HD Live streaming from Space Station
objects crossing your sky now

RADUGA 26

Track RADUGA 26 now!
RADUGA 26 is classified as:


NORAD ID: 21016
Int'l Code: 1990-112A
Perigee: 35,777.2 km
Apogee: 35,836.3 km
Inclination: 14.8 °
Period: 1,436.8 minutes
Semi major axis: 42177 km
RCS: 2.5118 m2 (large)
Launch date: December 20, 1990
Source: Commonwealth of Independent States (former USSR) (CIS)
Launch site: TYURATAM MISSILE AND SPACE COMPLEX (TTMTR)
aabbcc
Your satellite tracking list
Your tracking list is empty




NASA's NSSDC Master Catalog

Two Line Element Set (TLE):
1 21016U 90112A   19176.00604823 -.00000162  00000-0  00000+0 0  9999
2 21016  14.8497 358.5695 0007015  25.2130 332.8881  1.00225429104689
Source of the keplerian elements: AFSPC